• In Kazakhstan
  • List of Countries
  • For 7 days
  • Water Temperature
  • Satellite Maps
  • Weather Map
  • News
  • Weather Widgets
  • user-avatar
    Login

    Hourly Weather Banda

    Today, 25 November, Saturday

    Time Temperature Precipitation Wind Pressure Humidity
    00:00 +19°C° 0 mm 1 mps 750 mmHg 24%
    01:00 +19°C° 0 mm 1 mps 750 mmHg 24%
    02:00 +18°C° 0 mm 1 mps 750 mmHg 24%
    03:00 +18°C° 0 mm 1 mps 750 mmHg 25%
    04:00 +18°C° 0 mm 1 mps 750 mmHg 25%
    05:00 +16°C° 0 mm 1 mps 750 mmHg 25%
    06:00 +18°C° 0 mm 1 mps 750 mmHg 25%
    07:00 +20°C° 0 mm 1 mps 751 mmHg 25%
    08:00 +21°C° 0 mm 1 mps 752 mmHg 24%
    09:00 +23°C° 0 mm 1 mps 752 mmHg 21%
    10:00 +25°C° 0 mm 1 mps 752 mmHg 18%
    11:00 +27°C° 0 mm 1 mps 752 mmHg 15%
    12:00 +28°C° 0 mm 1 mps 751 mmHg 14%
    13:00 +29°C° 0 mm 1 mps 750 mmHg 13%
    14:00 +30°C° 0 mm 1 mps 750 mmHg 12%
    15:00 +28°C° 0 mm 1 mps 750 mmHg 13%
    16:00 +26°C° 0 mm 1 mps 750 mmHg 15%
    17:00 +23°C° 0 mm 0 mps 750 mmHg 17%
    18:00 +22°C° 0 mm 0 mps 750 mmHg 17%
    19:00 +21°C° 0 mm 0 mps 751 mmHg 18%
    20:00 +20°C° 0 mm 0 mps 751 mmHg 18%
    21:00 +20°C° 0 mm 0 mps 751 mmHg 19%
    22:00 +19°C° 0 mm 0 mps 751 mmHg 20%
    23:00 +19°C° 0 mm 0 mps 751 mmHg 20%

    Tomorrow, 26 November, Sunday

    Time Temperature Precipitation Wind Pressure Humidity
    00:00 +19°C° 0 mm 0 mps 751 mmHg 21%
    01:00 +18°C° 0 mm 0 mps 751 mmHg 21%
    02:00 +18°C° 0 mm 0 mps 751 mmHg 22%
    03:00 +17°C° 0 mm 0 mps 751 mmHg 23%
    04:00 +17°C° 0 mm 0 mps 751 mmHg 23%
    05:00 +16°C° 0 mm 0 mps 751 mmHg 24%
    06:00 +18°C° 0 mm 0 mps 751 mmHg 23%
    07:00 +19°C° 0 mm 0 mps 752 mmHg 23%
    08:00 +22°C° 0 mm 1 mps 753 mmHg 22%
    09:00 +24°C° 0 mm 1 mps 752 mmHg 20%
    10:00 +26°C° 0 mm 1 mps 752 mmHg 18%
    11:00 +28°C° 0 mm 2 mps 752 mmHg 16%
    12:00 +29°C° 0 mm 2 mps 751 mmHg 15%
    13:00 +30°C° 0 mm 2 mps 750 mmHg 14%
    14:00 +30°C° 0 mm 2 mps 749 mmHg 13%
    15:00 +29°C° 0 mm 2 mps 749 mmHg 15%
    16:00 +27°C° 0 mm 2 mps 749 mmHg 17%
    17:00 +25°C° 0 mm 1 mps 749 mmHg 19%
    18:00 +24°C° 0 mm 1 mps 750 mmHg 20%
    19:00 +23°C° 0 mm 1 mps 750 mmHg 21%
    20:00 +22°C° 0 mm 1 mps 751 mmHg 22%
    21:00 +22°C° 0 mm 1 mps 751 mmHg 23%
    22:00 +21°C° 0 mm 1 mps 751 mmHg 24%
    23:00 +21°C° 0 mm 1 mps 750 mmHg 24%

    Day after tomorrow, 27 November, Monday

    Time Temperature Precipitation Wind Pressure Humidity
    00:00 +20°C° 0 mm 1 mps 750 mmHg 25%
    01:00 +20°C° 0 mm 1 mps 750 mmHg 26%
    02:00 +19°C° 0 mm 1 mps 750 mmHg 26%
    03:00 +19°C° 0 mm 1 mps 750 mmHg 27%
    04:00 +18°C° 0 mm 1 mps 750 mmHg 28%
    05:00 +18°C° 0 mm 1 mps 750 mmHg 28%
    06:00 +19°C° 0 mm 1 mps 750 mmHg 28%
    07:00 +20°C° 0 mm 1 mps 751 mmHg 27%
    08:00 +22°C° 0 mm 1 mps 751 mmHg 27%
    09:00 +24°C° 0 mm 2 mps 751 mmHg 23%
    10:00 +26°C° 0 mm 2 mps 751 mmHg 20%
    11:00 +28°C° 0 mm 2 mps 750 mmHg 17%
    12:00 +29°C° 0 mm 2 mps 750 mmHg 16%
    13:00 +29°C° 0 mm 2 mps 749 mmHg 14%
    14:00 +30°C° 0 mm 2 mps 748 mmHg 13%
    15:00 +28°C° 0 mm 2 mps 748 mmHg 16%
    16:00 +27°C° 0 mm 2 mps 748 mmHg 18%
    17:00 +25°C° 0 mm 1 mps 748 mmHg 20%
    18:00 +24°C° 0 mm 1 mps 748 mmHg 21%
    19:00 +23°C° 0 mm 1 mps 749 mmHg 22%
    20:00 +22°C° 0 mm 1 mps 749 mmHg 23%
    21:00 +22°C° 0 mm 1 mps 749 mmHg 24%
    22:00 +21°C° 0 mm 1 mps 749 mmHg 24%
    23:00 +21°C° 0 mm 1 mps 749 mmHg 25%

    28 November, Tuesday

    Time Temperature Precipitation Wind Pressure Humidity
    00:00 +20°C° 0 mm 1 mps 748 mmHg 26%
    01:00 +20°C° 0 mm 1 mps 748 mmHg 27%
    02:00 +19°C° 0 mm 1 mps 748 mmHg 27%
    03:00 +19°C° 0 mm 1 mps 748 mmHg 28%
    04:00 +19°C° 0 mm 1 mps 748 mmHg 28%
    05:00 +18°C° 0 mm 1 mps 748 mmHg 29%
    06:00 +19°C° 0 mm 1 mps 749 mmHg 28%
    07:00 +21°C° 0 mm 1 mps 750 mmHg 28%
    08:00 +22°C° 0 mm 1 mps 750 mmHg 27%
    09:00 +24°C° 0 mm 1 mps 750 mmHg 24%
    10:00 +26°C° 0 mm 2 mps 750 mmHg 21%
    11:00 +28°C° 0 mm 2 mps 750 mmHg 18%
    12:00 +29°C° 0 mm 2 mps 749 mmHg 17%
    13:00 +30°C° 0 mm 2 mps 748 mmHg 16%
    14:00 +30°C° 0 mm 2 mps 748 mmHg 15%
    15:00 +29°C° 0 mm 2 mps 748 mmHg 17%
    16:00 +27°C° 0 mm 2 mps 748 mmHg 19%
    17:00 +25°C° 0 mm 1 mps 748 mmHg 21%
    18:00 +24°C° 0 mm 1 mps 749 mmHg 22%
    19:00 +23°C° 0 mm 1 mps 749 mmHg 23%
    20:00 +23°C° 0 mm 1 mps 750 mmHg 24%
    21:00 +22°C° 0 mm 1 mps 750 mmHg 25%
    22:00 +21°C° 0 mm 1 mps 749 mmHg 26%
    23:00 +21°C° 0 mm 1 mps 749 mmHg 28%

    29 November, Wednesday

    Time Temperature Precipitation Wind Pressure Humidity
    00:00 +20°C° 0 mm 1 mps 749 mmHg 29%
    01:00 +20°C° 0 mm 1 mps 749 mmHg 30%
    02:00 +17°C° 0 mm 0 mps 749 mmHg 31%
    03:00 +19°C° 0 mm 1 mps 749 mmHg 31%
    04:00 +19°C° 0 mm 1 mps 749 mmHg 32%
    05:00 +18°C° 0 mm 1 mps 750 mmHg 32%
    06:00 +20°C° 0 mm 1 mps 750 mmHg 31%
    07:00 +21°C° 0 mm 1 mps 751 mmHg 30%
    08:00 +22°C° 0 mm 1 mps 752 mmHg 28%
    09:00 +24°C° 0 mm 1 mps 752 mmHg 25%
    10:00 +26°C° 0 mm 1 mps 751 mmHg 22%
    11:00 +29°C° 0 mm 1 mps 751 mmHg 19%
    12:00 +29°C° 0 mm 1 mps 751 mmHg 18%
    13:00 +30°C° 0 mm 1 mps 750 mmHg 17%
    14:00 +30°C° 0 mm 2 mps 749 mmHg 15%
    15:00 +28°C° 0 mm 2 mps 749 mmHg 18%
    16:00 +27°C° 0 mm 2 mps 749 mmHg 20%
    17:00 +25°C° 0 mm 2 mps 749 mmHg 22%
    18:00 +24°C° 0 mm 2 mps 749 mmHg 24%
    19:00 +23°C° 0 mm 2 mps 750 mmHg 25%
    20:00 +21°C° 0 mm 2 mps 750 mmHg 27%
    21:00 +22°C° 0 mm 1 mps 750 mmHg 28%
    22:00 +21°C° 0 mm 1 mps 750 mmHg 29%
    23:00 +20°C° 0 mm 1 mps 750 mmHg 30%

    30 November, Thursday

    Time Temperature Precipitation Wind Pressure Humidity
    00:00 +20°C° 0 mm 1 mps 749 mmHg 31%
    01:00 +19°C° 0 mm 1 mps 749 mmHg 32%
    02:00 +19°C° 0 mm 1 mps 749 mmHg 33%
    03:00 +19°C° 0 mm 1 mps 749 mmHg 33%
    04:00 +18°C° 0 mm 1 mps 749 mmHg 34%
    05:00 +18°C° 0 mm 1 mps 749 mmHg 35%
    06:00 +19°C° 0 mm 1 mps 750 mmHg 33%
    07:00 +21°C° 0 mm 1 mps 751 mmHg 32%
    08:00 +22°C° 0 mm 1 mps 751 mmHg 30%
    09:00 +24°C° 0 mm 1 mps 751 mmHg 27%
    10:00 +24°C° 0 mm 0 mps 751 mmHg 24%
    11:00 +26°C° 0 mm 0 mps 751 mmHg 21%
    12:00 +29°C° 0 mm 1 mps 750 mmHg 19%
    13:00 +29°C° 0 mm 1 mps 749 mmHg 18%
    14:00 +30°C° 0 mm 2 mps 748 mmHg 16%
    15:00 +28°C° 0 mm 2 mps 749 mmHg 19%
    16:00 +26°C° 0 mm 2 mps 749 mmHg 21%
    17:00 +25°C° 0 mm 1 mps 749 mmHg 23%
    18:00 +24°C° 0 mm 1 mps 749 mmHg 25%
    19:00 +23°C° 0 mm 1 mps 750 mmHg 26%
    20:00 +22°C° 0 mm 1 mps 750 mmHg 27%
    21:00 +22°C° 0 mm 1 mps 750 mmHg 28%
    22:00 +21°C° 0 mm 1 mps 750 mmHg 29%
    23:00 +21°C° 0 mm 1 mps 750 mmHg 31%
    Show more